Change the Weather History Date:

Wednesday, April 17, 2013

  Actual Average Record
Temperature  
Mean Temperature 32 °F -  
Max Temperature 37 °F 55 °F 83 °F (1987)
Min Temperature 26 °F 29 °F 8 °F (1983)
Degree Days  
Heating Degree Days 34    
Moisture  
Dew Point 29 °F    
Average Humidity 85    
Maximum Humidity 96    
Minimum Humidity 67    
Precipitation  
Precipitation 0.15 in - - ()
Sea Level Pressure  
Sea Level Pressure 30.25 in    
Wind  
Wind Speed 7 mph (NE)    
Max Wind Speed 17 mph    
Max Gust Speed 21 mph    
Visibility 7 miles    
Events Fog , Rain , Snow    
Averages and records for this station are not official NWS values.
T = Trace of Precipitation, MM = Missing Value Source: NWS Daily Summary

Daily Weather History Graph

Daily Weather History Graph

Search for Another Location

Airport or City:

Trip Planner

Search our weather history database for the weather conditions in past years. The results will help you decide how hot, cold, wet, or windy it might be!

Date:

Astronomy

Apr. 17, 2013 Rise Set
Actual Time 6:12 AM CDT 7:54 PM CDT
Civil Twilight 5:40 AM CDT 8:26 PM CDT
Nautical Twilight 5:01 AM CDT 9:05 PM CDT
Astronomical Twilight 4:19 AM CDT 9:48 PM CDT
Moon 11:19 AM CDT (4/17) 1:40 AM CDT (4/17)
Length of Visible Light 14h 46m
Length of Day
13h 42m
Waxing Crescent, 42% of the Moon is Illuminated
Apr 17
Waxing Crescent
Apr 18
First Quarter
Apr 25
Full
May 2
Last Quarter
May 9
New

Hourly Weather History & Observations

Time (CDT) Temp. Windchill Dew Point Humidity Pressure Visibility Wind Dir Wind Speed Gust Speed Precip Events Conditions
12:53 AM 28.9 °F - 23.0 °F 78% 30.42 in 10.0 mi Calm Calm - N/A   Clear
1:53 AM 27.0 °F - 24.1 °F 89% 30.42 in 10.0 mi Calm Calm - N/A   Clear
2:53 AM 26.1 °F - 24.1 °F 92% 30.42 in 10.0 mi Calm Calm - N/A   Clear
3:53 AM 27.0 °F 23.0 °F 25.0 °F 92% 30.44 in 10.0 mi North 3.5 mph - N/A   Overcast
4:53 AM 28.0 °F - 27.0 °F 96% 30.44 in 10.0 mi Calm Calm - N/A   Mostly Cloudy
5:53 AM 30.0 °F - 27.0 °F 88% 30.43 in 10.0 mi Calm Calm - N/A   Clear
6:53 AM 28.9 °F - 26.1 °F 89% 30.41 in 10.0 mi Calm Calm - N/A   Clear
7:53 AM 33.1 °F 26.1 °F 28.9 °F 85% 30.42 in 10.0 mi East 8.1 mph - N/A   Mostly Cloudy
9:53 AM 36.0 °F 32.1 °F 27.0 °F 70% 30.41 in 10.0 mi East 4.6 mph - N/A   Mostly Cloudy
10:53 AM 37.0 °F 31.0 °F 27.0 °F 67% 30.39 in 10.0 mi North 8.1 mph - 0.02 in   Partly Cloudy
11:53 AM 35.1 °F 27.4 °F 28.9 °F 78% 30.39 in 10.0 mi NNE 10.4 mph - N/A   Overcast
12:53 PM 35.1 °F 26.9 °F 28.0 °F 76% 30.35 in 10.0 mi NE 11.5 mph - N/A   Overcast
1:53 PM 37.0 °F 30.4 °F 28.9 °F 73% 30.34 in 10.0 mi NE 9.2 mph - N/A   Overcast
2:08 PM 35.6 °F 27.5 °F 28.4 °F 75% 30.30 in 10.0 mi NE 11.5 mph - N/A   Overcast
2:19 PM 35.6 °F 27.5 °F 28.4 °F 75% 30.29 in 10.0 mi ENE 11.5 mph - N/A   Overcast
2:28 PM 35.6 °F 27.1 °F 28.4 °F 75% 30.27 in 10.0 mi ENE 12.7 mph - N/A   Overcast
2:40 PM 35.6 °F 25.9 °F 30.2 °F 81% 30.26 in 10.0 mi ENE 16.1 mph - N/A   Overcast
2:53 PM 35.1 °F 26.9 °F 28.9 °F 78% 30.29 in 10.0 mi NE 11.5 mph - N/A   Mostly Cloudy
3:38 PM 35.6 °F 26.2 °F 28.4 °F 75% 30.22 in 10.0 mi NE 15.0 mph - N/A   Overcast
3:53 PM 34.0 °F 25.5 °F 30.0 °F 85% 30.25 in 10.0 mi NNE 11.5 mph - N/A   Overcast
4:53 PM 34.0 °F 25.0 °F 30.0 °F 85% 30.24 in 10.0 mi NE 12.7 mph - N/A   Overcast
5:50 PM 33.8 °F 25.3 °F 28.4 °F 81% 30.19 in 10.0 mi NE 11.5 mph - N/A   Overcast
5:53 PM 34.0 °F 25.0 °F 28.9 °F 82% 30.23 in 10.0 mi NE 12.7 mph - N/A   Overcast
6:53 PM 33.1 °F 23.4 °F 28.9 °F 85% 30.17 in 10.0 mi NE 13.8 mph - N/A   Overcast
7:53 PM 33.1 °F 25.5 °F 28.9 °F 85% 30.18 in 10.0 mi NE 9.2 mph - N/A   Overcast
8:32 PM 33.8 °F 25.3 °F 30.2 °F 87% 30.13 in 7.0 mi NNE 11.5 mph - N/A   Overcast
8:53 PM 33.1 °F 23.4 °F 30.9 °F 92% 30.18 in 3.0 mi NNE 13.8 mph - 0.01 in Snow Light Snow
9:17 PM 32.0 °F 22.1 °F 30.2 °F 93% 30.13 in 2.5 mi NNE 13.8 mph - 0.01 in Snow Light Snow
9:29 PM 32.0 °F 22.1 °F 30.2 °F 93% 30.12 in 3.0 mi NNE 13.8 mph - 0.01 in Snow Light Snow
9:43 PM 32.0 °F 22.1 °F 30.2 °F 93% 30.12 in 2.5 mi NNE 13.8 mph - 0.01 in Snow Light Snow
9:53 PM 32.0 °F 22.5 °F 30.9 °F 96% 30.14 in 2.5 mi NNE 12.7 mph - 0.02 in Snow Light Snow
10:06 PM 32.0 °F 20.8 °F 30.2 °F 93% 30.10 in 3.0 mi NNE 17.3 mph - 0.00 in   Overcast
10:34 PM 32.0 °F 21.6 °F 30.2 °F 93% 30.10 in 2.5 mi NE 15.0 mph 20.7 mph 0.00 in Rain Light Freezing Rain
10:43 PM 32.0 °F 22.1 °F 30.2 °F 93% 30.09 in 2.0 mi NNE 13.8 mph - 0.01 in Snow Light Snow
10:53 PM 32.0 °F 23.0 °F 30.9 °F 96% 30.13 in 2.0 mi NE 11.5 mph - 0.01 in Snow Light Snow
11:30 PM 32.0 °F 22.5 °F 30.2 °F 93% 30.07 in 1.5 mi NE 12.7 mph - 0.05 in Snow Light Snow
11:49 PM 32.0 °F 22.5 °F 30.2 °F 93% 30.07 in 0.8 mi NE 12.7 mph - 0.08 in Snow Light Snow
11:53 PM 32.0 °F 22.1 °F 30.9 °F 96% 30.10 in 0.5 mi NE 13.8 mph - 0.09 in Fog , Snow Snow